Pensacola, FL

2:38 AM CST on November 23, 2017 (GMT -0600)
Pensacola Regional

Weather History for KPNS - June, 2013

Change the Weather History Date:

Wednesday, June 5, 2013

  Actual Average Record
Temperature  
Mean Temperature 78 °F 79 °F  
Max Temperature 87 °F 87 °F 97 °F (1985)
Min Temperature 69 °F 71 °F 61 °F (1954)
Cooling Degree Days 13 14  
Month to date cooling degree days 79 69  
Year to date cooling degree days 521 517  
Since 1 June cooling degree days 79 69  
Growing Degree Days 31 (Base 50)    
Moisture  
Dew Point 73 °F    
Average Humidity 72    
Maximum Humidity 85    
Minimum Humidity 59    
Precipitation  
Precipitation 0.51 in 0.18 in 2.94 in (1994)
Month to date precipitation 0.59 0.88  
Year to date precipitation 22.63 24.88  
Sea Level Pressure  
Sea Level Pressure 29.93 in    
Wind  
Wind Speed 9 mph (SE)    
Max Wind Speed 30 mph    
Max Gust Speed 37 mph    
Visibility 9 miles    
Events Rain    
T = Trace of Precipitation, MM = Missing Value Source: NWS Daily Summary

Daily Weather History Graph

Daily Weather History Graph

Search for Another Location

Airport or City:

Trip Planner

Search our weather history database for the weather conditions in past years. The results will help you decide how hot, cold, wet, or windy it might be!

Date:

Astronomy

Jun. 05, 2013 Rise Set
Actual Time 5:46 AM CDT 7:48 PM CDT
Civil Twilight 5:18 AM CDT 8:15 PM CDT
Nautical Twilight 4:45 AM CDT 8:49 PM CDT
Astronomical Twilight 4:10 AM CDT 9:24 PM CDT
Moon 3:40 AM CDT (6/5) 5:22 PM CDT (6/5)
Length of Visible Light 14h 57m
Length of Day
14h 02m
Waning Crescent, 8% of the Moon is Illuminated
Jun 5
Waning Crescent
Jun 8
New
Jun 16
First Quarter
Jun 23
Full
Jun 29
Last Quarter

Hourly Weather History & Observations

Time (CDT) Temp. Heat Index Dew Point Humidity Pressure Visibility Wind Dir Wind Speed Gust Speed Precip Events Conditions
12:17 AM 78.8 °F - 73.4 °F 83% 29.96 in 10.0 mi South 13.8 mph - N/A   Mostly Cloudy
12:20 AM 78.8 °F - 73.4 °F 83% 29.96 in 10.0 mi South 12.7 mph - N/A   Scattered Clouds
12:36 AM 78.8 °F - 73.4 °F 83% 29.96 in 10.0 mi South 10.4 mph - N/A   Mostly Cloudy
12:44 AM 78.8 °F - 73.4 °F 83% 29.96 in 10.0 mi South 9.2 mph - N/A   Partly Cloudy
12:53 AM 79.0 °F - 73.0 °F 82% 29.96 in 10.0 mi South 9.2 mph - N/A   Partly Cloudy
1:53 AM 79.0 °F - 73.0 °F 82% 29.94 in 10.0 mi South 6.9 mph - N/A   Scattered Clouds
2:37 AM 78.8 °F - 73.4 °F 83% 29.94 in 10.0 mi South 6.9 mph - N/A   Mostly Cloudy
2:53 AM 78.1 °F - 73.0 °F 84% 29.94 in 10.0 mi SSE 6.9 mph - N/A   Mostly Cloudy
3:01 AM 78.8 °F - 71.6 °F 78% 29.93 in 10.0 mi SSE 5.8 mph - N/A   Scattered Clouds
3:53 AM 78.1 °F - 72.0 °F 81% 29.93 in 10.0 mi SSE 6.9 mph - N/A   Scattered Clouds
4:15 AM 78.8 °F - 73.4 °F 83% 29.93 in 10.0 mi SSE 5.8 mph - N/A   Mostly Cloudy
4:45 AM 78.8 °F - 73.4 °F 83% 29.94 in 10.0 mi SSE 6.9 mph - N/A   Overcast
4:53 AM 79.0 °F - 73.0 °F 82% 29.94 in 10.0 mi SE 4.6 mph - N/A   Overcast
5:04 AM 78.8 °F - 73.4 °F 83% 29.94 in 10.0 mi ESE 5.8 mph - N/A   Overcast
5:19 AM 78.8 °F - 73.4 °F 83% 29.94 in 10.0 mi SE 4.6 mph - N/A   Overcast
5:53 AM 78.1 °F - 73.0 °F 84% 29.95 in 10.0 mi SE 6.9 mph - N/A   Mostly Cloudy
6:04 AM 78.8 °F - 73.4 °F 83% 29.95 in 10.0 mi ESE 5.8 mph - N/A   Mostly Cloudy
6:36 AM 78.8 °F - 73.4 °F 83% 29.94 in 5.0 mi ESE 11.5 mph - 0.00 in Rain Light Rain
6:44 AM 77.0 °F - 71.6 °F 83% 29.94 in 1.0 mi NE 5.8 mph 20.7 mph 0.12 in Rain Heavy Rain
6:51 AM 75.2 °F - 73.4 °F 94% 29.94 in 3.0 mi East 3.5 mph - 0.14 in Rain Rain
6:53 AM 75.9 °F - 73.0 °F 91% 29.95 in 5.0 mi Calm Calm - 0.14 in Rain Light Rain
7:03 AM 75.2 °F - 73.4 °F 94% 29.94 in 9.0 mi ENE 3.5 mph - 0.00 in Rain Light Rain
7:20 AM 78.8 °F - 75.2 °F 89% 29.94 in 10.0 mi NE 6.9 mph - 0.00 in   Overcast
7:30 AM 77.0 °F - 75.2 °F 94% 29.95 in 2.0 mi ENE 9.2 mph - 0.01 in Rain Rain
7:37 AM 77.0 °F - 73.4 °F 89% 29.94 in 4.0 mi East 10.4 mph - 0.14 in Rain Rain
7:53 AM 77.0 °F - 73.9 °F 90% 29.95 in 10.0 mi ENE 4.6 mph - 0.14 in Rain Light Rain
8:53 AM 80.1 °F 85.1 °F 75.0 °F 85% 29.95 in 10.0 mi East 4.6 mph - 0.00 in   Scattered Clouds
9:53 AM 84.0 °F 90.2 °F 73.0 °F 69% 29.96 in 10.0 mi SE 9.2 mph - N/A   Mostly Cloudy
10:30 AM 84.2 °F 90.9 °F 73.4 °F 70% 29.95 in 10.0 mi SE 11.5 mph - N/A   Scattered Clouds
10:53 AM 86.0 °F 93.0 °F 73.0 °F 65% 29.96 in 10.0 mi SE 16.1 mph 19.6 mph N/A   Scattered Clouds
11:53 AM 86.0 °F 93.0 °F 73.0 °F 65% 29.96 in 10.0 mi SSE 12.7 mph - N/A   Partly Cloudy
12:53 PM 86.0 °F 93.8 °F 73.9 °F 67% 29.94 in 10.0 mi SE 12.7 mph - N/A   Partly Cloudy
1:53 PM 86.0 °F 93.0 °F 73.0 °F 65% 29.93 in 10.0 mi SSE 11.5 mph 19.6 mph N/A   Clear
2:53 PM 87.1 °F 93.6 °F 72.0 °F 61% 29.91 in 10.0 mi SE 15.0 mph 20.7 mph N/A   Scattered Clouds
3:53 PM 86.0 °F 91.5 °F 71.1 °F 61% 29.89 in 10.0 mi South 15.0 mph 20.7 mph N/A   Partly Cloudy
4:53 PM 82.9 °F 87.5 °F 71.1 °F 67% 29.88 in 10.0 mi SE 11.5 mph - N/A   Clear
5:53 PM 82.9 °F 87.5 °F 71.1 °F 67% 29.88 in 10.0 mi SE 11.5 mph - N/A   Partly Cloudy
6:12 PM 82.4 °F 87.2 °F 71.6 °F 70% 29.87 in 10.0 mi SE 13.8 mph - N/A   Mostly Cloudy
6:19 PM 82.4 °F 87.2 °F 71.6 °F 70% 29.87 in 10.0 mi SSE 15.0 mph - N/A   Scattered Clouds
6:29 PM 82.4 °F 87.2 °F 71.6 °F 70% 29.87 in 10.0 mi SE 15.0 mph - N/A   Mostly Cloudy
6:41 PM 80.6 °F 84.6 °F 71.6 °F 74% 29.87 in 10.0 mi SSE 13.8 mph - N/A   Scattered Clouds
6:53 PM 82.0 °F 86.7 °F 72.0 °F 71% 29.88 in 10.0 mi SSE 13.8 mph - N/A   Scattered Clouds
7:02 PM 80.6 °F 84.6 °F 71.6 °F 74% 29.87 in 10.0 mi SSE 12.7 mph - N/A   Mostly Cloudy
7:53 PM 80.1 °F 83.8 °F 72.0 °F 76% 29.88 in 10.0 mi SSE 10.4 mph - N/A   Mostly Cloudy
8:03 PM 80.6 °F 84.6 °F 71.6 °F 74% 29.89 in 10.0 mi SSE 10.4 mph - N/A   Mostly Cloudy
8:53 PM 80.1 °F 83.2 °F 70.0 °F 71% 29.90 in 10.0 mi SSE 11.5 mph - N/A   Mostly Cloudy
9:53 PM 79.0 °F - 70.0 °F 74% 29.93 in 10.0 mi SSE 5.8 mph - N/A   Partly Cloudy
10:53 PM 79.0 °F - 70.0 °F 74% 29.94 in 10.0 mi SE 3.5 mph - N/A   Partly Cloudy
11:53 PM 72.0 °F - 66.9 °F 84% 29.95 in 4.0 mi North 11.5 mph 36.8 mph 0.04 in Rain Heavy Rain